Location: Curupao
(10.4996°N, 66.6442°W)
Time: 22:11:30
(UTC+00:00)

GENESIS II - Pass Details

Date: 23 May 2024
Orbit: 440 x 468 km, 64.5° (Epoch: 25 June)

Event Time Altitude Azimuth Distance (km) Brightness Sun altitude
Exits shadow 08:32:59 54° 330° (NNW) 573 4.3 -21.2°
Drops below altitude 10° 08:36:05 10° 14° (NNE) 1,623 7.2 -20.5°
Sets 08:38:15 0° 18° (NNE) 2,502 8.4 -20.1°
